Torna al catalogo

MIDAS 3 DEB

AttivoPO
NORAD 196·DEBRIS·🇺🇸 United States

Lanciato Jul 12, 1961 da Vandenberg Space Force Base

Loading…

Prossimi Passaggi (prossime 24 ore)

TLE

AggiornatoSource: Space-Track

Epoca: Sep 8, 2026, 07:10 UTC

1 00196U 61018D   26251.29929170  .00000006  00000-0  19056-2 0  9996
2 00196  91.1299 206.9868 0087552 224.4823 134.8994  8.89679876116048

Traccia MIDAS 3 DEB in tempo reale con AllMySat

Download on the App Store